Home   Weather   Rüsselsheim   Past weeks

Flag for Germany Past Weather in Rüsselsheim, Hesse, Germany — Yesterday and Last 2 Weeks

Now
39 °F

Overcast.


Feels Like: 39 °F
Forecast: 34 / 45 °F
Wind: No wind

Location: Wiesbaden Airport

Current Time: Dec 9, 2016 at 6:27:11 pm

Latest Report: Dec 9, 2016 at 4:58 pm


Visibility: N/A

Pressure: 30.48 "Hg

Humidity: 93%

Dew Point: 37 °F

Location of RüsselsheimLocation

Past Weather in Rüsselsheim — Graph

°F

Rüsselsheim Temperature Yesterday

Maximum temperature yesterday: 32 °F (at 3:58 pm)
Minimum temperature yesterday: 28 °F (at 5:58 am)
Average temperature yesterday: 30 °F

High & Low Weather Summary for the Past Weeks

 TemperatureHumidityPressure
High55 °F (Nov 24, 3:58 pm)100% (Dec 6, 1:58 am)30.62 "Hg (Dec 6, 1:58 am)
Low22 °F (Nov 30, 6:58 am)49% (Nov 28, 3:58 pm)30.05 "Hg (Nov 24, 3:58 pm)
Average35 °F82%30.36 "Hg
* Reported Nov 24 3:58 pm — Dec 9 3:58 pm, Rüsselsheim, Weather by CustomWeather, © 2016

Note: Actual official high and low records may vary slightly from our data, if they occured in-between our weather recording intervals... More about our weather records

Advertising

Rüsselsheim Weather History for the Previous 24 Hours

Scroll right to see more
 ConditionsComfort  
Time TempWeatherWind HumidityBarometerVisibility
3:58 pm
Fri, Dec 9
38 °FOvercast.No wind95%30.48 "HgN/A
2:58 pm38 °FOvercast.No wind90%30.48 "HgN/A
1:58 pm38 °FMore clouds than sun.No wind90%30.49 "HgN/A
12:58 pm37 °FOvercast.No wind92%30.50 "HgN/A
11:58 am37 °FOvercast.No wind93%30.50 "HgN/A
10:58 am36 °FOvercast.No wind95%30.50 "HgN/A
9:58 am34 °FOvercast.No wind96%30.50 "HgN/A
8:58 am33 °FOvercast.No wind97%30.48 "HgN/A
7:58 am32 °FMostly cloudy.No wind100%30.47 "HgN/A
6:58 am32 °FOvercast.No wind99%30.47 "HgN/A
5:58 am32 °FIce fog.No wind100%30.47 "Hg5 mi
4:58 am32 °FIce fog.No wind98%30.47 "Hg3 mi
4:01 am32 °FIce fog.No wind100%30.44 "Hg1 mi
3:58 am32 °FIce fog.No wind93%30.47 "Hg1 mi
2:58 am31 °FIce fog.No wind99%30.47 "Hg0 mi
1:58 am31 °FChilly.No wind98%30.48 "HgN/A
12:58 am31 °FChilly.No wind98%30.49 "HgN/A
11:58 pm
Thu, Dec 8
30 °FIce fog.5 mph100%30.49 "Hg0 mi
10:58 pm32 °FIce fog.No wind93%30.50 "Hg0 mi
9:58 pm31 °FChilly.No wind98%30.50 "HgN/A
8:58 pm31 °FIce fog.No wind98%30.51 "Hg1 mi
7:58 pm30 °FIce fog.3 mph100%30.50 "Hg0 mi
6:58 pm31 °FIce fog.5 mph98%30.50 "Hg2 mi
Weather by CustomWeather, © 2016

See weather overviewHow to use our weather pages